Grand Marais, MN

11:11 AM CDT on July 22, 2017 (GMT -0500)
Grand Marais

Weather History for KGNA - October, 2011

Change the Weather History Date:

Saturday, October 15, 2011

  Actual Average (KCKC) Record (KCKC)
Temperature  
Mean Temperature 46 °F -  
Max Temperature 51 °F 46 °F 60 °F (2016)
Min Temperature 43 °F 32 °F 26 °F (2006)
Degree Days  
Heating Degree Days 18    
Moisture  
Dew Point 33 °F    
Average Humidity 61    
Maximum Humidity 74    
Minimum Humidity 50    
Precipitation  
Precipitation 0.00 in - - ()
Sea Level Pressure  
Sea Level Pressure 29.59 in    
Wind  
Wind Speed 9 mph (West)    
Max Wind Speed 15 mph    
Max Gust Speed 28 mph    
Averages and records for this station are not official NWS values.
T = Trace of Precipitation, MM = Missing Value Source: NWS Daily Summary

Daily Weather History Graph

Daily Weather History Graph

Search for Another Location

Airport or City:

Trip Planner

Search our weather history database for the weather conditions in past years. The results will help you decide how hot, cold, wet, or windy it might be!

Date:

Astronomy

Oct. 15, 2011 Rise Set
Actual Time 7:19 AM CDT 6:13 PM CDT
Civil Twilight 6:48 AM CDT 6:44 PM CDT
Nautical Twilight 6:13 AM CDT 7:20 PM CDT
Astronomical Twilight 5:37 AM CDT 7:56 PM CDT
Moon 7:52 PM CDT (10/15) 11:02 AM CDT (10/15)
Length of Visible Light 11h 55m
Length of Day
10h 53m
Waning Gibbous, 89% of the Moon is Illuminated
Oct 15
Waning Gibbous
Oct 19
Last Quarter
Oct 26
New
Nov 2
First Quarter
Nov 10
Full

Hourly Weather History & Observations

Time (CDT) Temp. Windchill Dew Point Humidity Pressure Visibility Wind Dir Wind Speed Gust Speed Precip Events Conditions
12:56 AM 46.0 °F 40.6 °F 35.1 °F 66% 29.50 in - WNW 11.5 mph 21.9 mph N/A   Unknown
1:56 AM 45.0 °F 41.2 °F 34.0 °F 65% 29.52 in - Variable 6.9 mph 20.7 mph N/A   Unknown
2:56 AM 44.1 °F 39.5 °F 33.1 °F 65% 29.52 in - WNW 8.1 mph 23.0 mph N/A   Unknown
3:56 AM 44.1 °F 39.0 °F 33.1 °F 65% 29.53 in - West 9.2 mph 23.0 mph N/A   Unknown
4:56 AM 43.0 °F 38.2 °F 35.1 °F 74% 29.55 in - West 8.1 mph - N/A   Unknown
5:56 AM 43.0 °F 38.2 °F 34.0 °F 71% 29.56 in - WSW 8.1 mph - N/A   Unknown
6:56 AM 43.0 °F 36.8 °F 33.1 °F 68% 29.56 in - West 11.5 mph 19.6 mph N/A   Unknown
7:56 AM 43.0 °F 38.2 °F 33.1 °F 68% 29.58 in - West 8.1 mph - N/A   Unknown
8:56 AM 44.1 °F 42.5 °F 32.0 °F 63% 29.59 in - Variable 3.5 mph - N/A   Unknown
9:56 AM 46.0 °F 39.6 °F 32.0 °F 58% 29.60 in - WNW 15.0 mph 27.6 mph N/A   Unknown
10:56 AM 48.0 °F - 32.0 °F 54% 29.60 in - West 9.2 mph 18.4 mph N/A   Unknown
11:56 AM 48.9 °F - 30.9 °F 50% 29.60 in - NW 9.2 mph 23.0 mph N/A   Unknown
12:56 PM 48.9 °F - 30.9 °F 50% 29.60 in - West 8.1 mph 20.7 mph N/A   Unknown
1:56 PM 48.9 °F - 33.1 °F 54% 29.60 in - West 12.7 mph 20.7 mph N/A   Unknown
2:56 PM 50.0 °F - 37.0 °F 61% 29.60 in - West 12.7 mph 26.5 mph N/A   Unknown
3:56 PM 48.0 °F - 34.0 °F 58% 29.62 in - West 10.4 mph 21.9 mph N/A   Unknown
4:56 PM 48.0 °F - 33.1 °F 56% 29.61 in - West 9.2 mph 23.0 mph N/A   Unknown
5:56 PM 46.0 °F 41.4 °F 32.0 °F 58% 29.63 in - West 9.2 mph 17.3 mph N/A   Unknown
6:56 PM 46.0 °F 41.4 °F 33.1 °F 61% 29.64 in - West 9.2 mph 24.2 mph N/A   Unknown
7:56 PM 46.9 °F - 32.0 °F 56% 29.63 in - Variable 5.8 mph 20.7 mph N/A   Unknown
8:56 PM 46.9 °F - 33.1 °F 59% 29.63 in - Variable 6.9 mph 21.9 mph N/A   Unknown
9:56 PM 46.0 °F 43.1 °F 33.1 °F 61% 29.63 in - Variable 5.8 mph - N/A   Unknown
10:56 PM 45.0 °F 40.6 °F 34.0 °F 65% 29.62 in - WSW 8.1 mph - N/A   Unknown
11:56 PM 45.0 °F 40.1 °F 33.1 °F 63% 29.62 in - West 9.2 mph - N/A   Unknown